EW2422 Weather Reports


Display with metric or nautical units.
time (UTC)temp
F
wind
direction
speed
MPH
gust
MPH
rain 1hr
in
rain 24hr
in
rain mn
in
humidity
%
barometer
mb
20190217180523 45 53 0.0 2.0 0.00 0.08 0.05 74 1013.1
20190217180039 45 2 0.0 4.0 0.00 0.08 0.05 74 1013.1
20190217175536 45 7 2.0 4.0 0.00 0.08 0.05 75 1013.1
20190217175033 45 44 1.0 5.0 0.00 0.08 0.05 77 1013.2
20190217174529 44 31 2.0 5.0 0.00 0.08 0.05 77 1013.1
20190217174030 44 30 2.0 5.0 0.00 0.08 0.05 76 1013.1
20190217173529 44 30 1.0 4.0 0.00 0.08 0.05 77 1013.1
20190217173025 44 349 1.0 5.0 0.00 0.08 0.05 78 1013.1
20190217172523 44 37 2.0 5.0 0.00 0.08 0.05 79 1013.1
20190217172020 43 40 2.0 5.0 0.00 0.08 0.05 78 1013.1
20190217171537 43 14 1.0 6.0 0.00 0.08 0.05 80 1013.0
20190217171034 43 281 2.0 6.0 0.00 0.08 0.05 79 1013.0
20190217170529 43 14 1.0 5.0 0.00 0.08 0.05 79 1013.1
20190217170025 43 31 1.0 5.0 0.00 0.08 0.05 82 1013.1
20190217165523 43 342 1.0 3.0 0.00 0.08 0.05 82 1013.1
20190217165040 42 145 1.0 6.0 0.00 0.08 0.05 84 1013.1
20190217164539 42 224 1.0 6.0 0.00 0.08 0.05 83 1013.0
20190217164036 41 24 0.0 4.0 0.00 0.08 0.05 86 1013.1
20190217163535 41 266 1.0 3.0 0.00 0.08 0.05 87 1013.0
20190217163031 41 224 1.0 5.0 0.00 0.08 0.05 86 1012.9
20190217162531 40 15 2.0 5.0 0.00 0.08 0.05 88 1012.9
20190217162028 40 335 0.0 2.0 0.00 0.08 0.05 89 1012.8
20190217161526 40 68 0.0 2.0 0.00 0.08 0.05 90 1012.8
20190217161043 39 41 1.0 2.0 0.00 0.08 0.05 91 1012.8
20190217160537 39 91 0.0 1.0 0.00 0.08 0.05 92 1012.7
20190217160033 39 91 0.0 1.0 0.00 0.08 0.05 92 1012.7
20190217155530 39 43 0.0 1.0 0.00 0.08 0.05 93 1012.6
20190217155027 38 43 0.0 1.0 0.00 0.08 0.05 93 1012.6
20190217154524 38 43 0.0 1.0 0.00 0.08 0.05 93 1012.5
20190217154021 38 42 0.0 1.0 0.00 0.08 0.05 93 1012.5
20190217153539 38 42 0.0 0.0 0.00 0.08 0.05 92 1012.4
20190217153036 0 0.0 0.0 0.00 0.08 0.05 1012.3
20190217152534 0 0.0 0.0 0.00 0.08 0.05 1012.2
20190217152032 0 0.0 0.0 0.00 0.08 0.05 1012.2
20190217151529 0 0.0 0.0 0.00 0.08 0.05 1012.1
20190217151112 0 0.0 0.0 0.00 0.08 0.05 1012.0
20190217150531 0 0.0 0.0 0.00 0.08 0.05 1012.0
20190217150023 0 0.0 0.0 0.00 0.08 0.05 1011.9
20190217145540 0 0.0 0.0 0.00 0.08 0.05 1011.9
20190217145037 0 0.0 0.0 0.00 0.08 0.05 1011.8
20190217144558 0 0.0 0.0 0.00 0.08 0.05 1011.8
20190217144037 0 0.0 0.0 0.00 0.08 0.05 1011.8
20190217143535 0 0.0 0.0 0.00 0.08 0.05 1011.7
20190217143031 0 0.0 0.0 0.00 0.08 0.05 1011.6
20190217142527 0 0.0 0.0 0.00 0.08 0.05 1011.5
20190217142109 0 0.0 0.0 0.00 0.08 0.05 1011.5
20190217141038 0 0.0 0.0 0.00 0.08 0.05 1011.4
20190217140533 0 0.0 0.0 0.00 0.08 0.05 1011.5
20190217140028 0 0.0 0.0 0.00 0.08 0.05 1011.6
20190217135613 0 0.0 0.0 0.00 0.08 0.05 1011.7
20190217135030 0 0.0 0.0 0.00 0.08 0.05 1011.8
20190217134525 0 0.0 0.0 0.00 0.08 0.05 1011.8
20190217134023 0 0.0 0.0 0.00 0.08 0.05 1011.7
20190217133539 0 0.0 0.0 0.00 0.08 0.05 1011.7
20190217133100 0 0.0 0.0 0.00 0.08 0.05 1011.7
20190217132033 0 0.0 0.0 0.00 0.08 0.05 1011.7
20190217131530 0 0.0 0.0 0.00 0.08 0.05 1011.8
20190217131027 0 0.0 0.0 0.00 0.08 0.05 1011.6
20190217130603 39 32 0.0 1.0 0.00 0.08 0.05 94 1011.8
20190217125534 38 33 0.0 2.0 0.00 0.08 0.05 94 1011.6
20190217125030 38 45 0.0 2.0 0.00 0.08 0.05 94 1011.7
20190217124528 38 70 0.0 2.0 0.00 0.08 0.05 94 1011.9
20190217124025 38 266 0.0 0.0 0.00 0.08 0.05 94 1011.8
20190217123523 38 266 0.0 1.0 0.00 0.08 0.05 94 1011.9
20190217123039 38 265 0.0 1.0 0.00 0.08 0.05 94 1011.9
20190217122536 38 330 0.0 0.0 0.00 0.08 0.05 93 1012.0
20190217122035 38 331 0.0 0.0 0.00 0.08 0.05 93 1012.0
20190217121532 38 331 0.0 0.0 0.00 0.08 0.05 93 1012.0
20190217121033 38 331 0.0 1.0 0.00 0.08 0.05 93 1012.1
20190217120526 38 331 0.0 1.0 0.01 0.08 0.05 93 1012.1
20190217120022 38 332 0.0 1.0 0.02 0.08 0.05 93 1012.1
20190217115539 38 331 0.0 1.0 0.04 0.08 0.05 92 1012.2
20190217115036 38 285 0.0 1.0 0.05 0.08 0.05 92 1012.4
20190217114534 39 285 0.0 2.0 0.05 0.08 0.05 91 1012.4
20190217114031 39 44 1.0 2.0 0.05 0.08 0.05 91 1012.4
20190217113529 39 6 1.0 1.0 0.05 0.08 0.05 90 1012.5
20190217113025 39 89 0.0 1.0 0.05 0.08 0.05 90 1012.4
20190217112524 40 29 0.0 1.0 0.05 0.08 0.05 90 1012.4
20190217112021 40 9 1.0 5.0 0.05 0.08 0.05 89 1012.5
20190217111539 40 314 1.0 6.0 0.05 0.08 0.05 89 1012.5
20190217111035 40 226 2.0 6.0 0.05 0.08 0.05 88 1012.4
20190217110529 41 221 3.0 5.0 0.04 0.07 0.04 87 1013.0
20190217110026 41 226 1.0 4.0 0.02 0.05 0.02 85 1013.7
20190217105527 42 268 0.0 2.0 0.01 0.04 0.01 83 1013.7
20190217105024 42 297 0.0 2.0 0.00 0.03 0.00 81 1013.6
20190217104521 42 269 0.0 5.0 0.00 0.03 0.00 81 1013.5
20190217104038 42 68 2.0 5.0 0.00 0.03 0.00 80 1013.5
20190217103536 42 21 4.0 5.0 0.00 0.03 0.00 80 1013.5
20190217103031 42 32 1.0 3.0 0.00 0.03 0.00 80 1013.7
20190217102528 42 101 0.0 5.0 0.00 0.03 0.00 80 1013.8
20190217102026 42 65 4.0 6.0 0.00 0.03 0.00 80 1013.8
20190217101523 42 89 2.0 8.0 0.00 0.03 0.00 80 1013.8
20190217101039 41 60 2.0 6.0 0.00 0.03 0.00 80 1013.8
20190217100533 42 77 2.0 6.0 0.00 0.03 0.00 80 1013.9
20190217100028 42 80 2.0 4.0 0.00 0.03 0.00 80 1014.0
20190217095525 42 74 1.0 4.0 0.00 0.03 0.00 79 1014.0
20190217095021 42 87 1.0 8.0 0.00 0.03 0.00 79 1014.0
20190217094539 42 96 1.0 8.0 0.00 0.03 0.00 80 1014.1
20190217094036 41 79 1.0 3.0 0.00 0.03 0.00 81 1014.1
20190217093537 41 113 1.0 6.0 0.00 0.03 0.00 81 1014.1
20190217093030 41 75 2.0 6.0 0.00 0.10 0.00 81 1014.3
20190217092528 41 59 2.0 6.0 0.00 0.10 0.00 82 1014.4
20190217092024 40 78 2.0 5.0 0.00 0.10 0.00 83 1014.5
20190217091522 40 75 2.0 4.0 0.00 0.10 0.00 83 1014.7
20190217091039 40 88 2.0 3.0 0.00 0.10 0.00 84 1014.7
20190217090533 39 70 1.0 2.0 0.00 0.10 0.00 85 1014.8
20190217090029 39 41 0.0 2.0 0.00 0.10 0.00 85 1014.8
20190217085526 39 48 1.0 2.0 0.00 0.10 0.00 85 1014.9
20190217085022 39 13 0.0 1.0 0.00 0.10 0.00 85 1015.0
20190217084539 39 134 0.0 1.0 0.00 0.10 0.00 84 1015.0
20190217084037 39 134 0.0 2.0 0.00 0.10 0.00 85 1015.1
20190217083535 39 14 1.0 2.0 0.00 0.10 0.00 85 1015.0
20190217083030 39 73 0.0 3.0 0.00 0.16 0.10 84 1015.0
20190217082527 39 329 0.0 3.0 0.00 0.16 0.10 85 1014.9
20190217082028 39 19 0.0 1.0 0.00 0.16 0.10 85 1015.0
20190217081524 39 118 0.0 1.0 0.00 0.16 0.10 84 1015.1
20190217081041 39 120 0.0 2.0 0.00 0.16 0.10 84 1015.1
20190217080536 39 116 0.0 2.0 0.00 0.16 0.10 84 1015.2
20190217080032 39 245 0.0 1.0 0.00 0.16 0.10 84 1015.2
20190217075529 39 2 0.0 2.0 0.00 0.16 0.10 84 1015.1
20190217074533 39 28 0.0 2.0 0.00 0.16 0.10 84 1015.3
20190217074030 39 15 1.0 2.0 0.00 0.16 0.10 83 1015.4
20190217073528 39 56 0.0 10.0 0.00 0.16 0.10 83 1015.5
20190217073023 39 276 2.0 10.0 0.00 0.21 0.10 84 1015.4
20190217072539 39 56 2.0 4.0 0.00 0.21 0.10 85 1015.6
20190217072036 39 15 1.0 2.0 0.00 0.21 0.10 85 1015.5
20190217071533 38 60 1.0 2.0 0.00 0.21 0.10 86 1015.5
20190217071030 38 336 0.0 2.0 0.00 0.21 0.10 87 1015.6
20190217070525 38 22 0.0 2.0 0.00 0.21 0.10 86 1015.6
20190217070040 38 253 0.0 1.0 0.00 0.21 0.10 86 1015.4
20190217065538 38 231 0.0 2.0 0.00 0.21 0.10 86 1015.4
20190217065035 38 103 0.0 2.0 0.00 0.21 0.10 86 1015.5
20190217064535 38 149 0.0 0.0 0.00 0.21 0.10 85 1015.6
20190217064035 38 208 0.0 0.0 0.00 0.21 0.10 85 1015.6
20190217063532 39 205 0.0 0.0 0.00 0.21 0.10 84 1015.6
20190217063028 39 205 0.0 0.0 0.00 0.21 0.10 84 1015.5
20190217062525 39 222 0.0 0.0 0.00 0.21 0.10 83 1015.6
20190217062022 40 183 0.0 0.0 0.00 0.21 0.10 83 1015.5
20190217061539 40 219 0.0 0.0 0.00 0.21 0.10 82 1015.5
20190217061035 40 221 0.0 0.0 0.00 0.21 0.10 81 1015.4
20190217060536 40 150 0.0 0.0 0.00 0.21 0.10 81 1015.4
20190217060027 40 262 0.0 0.0 0.00 0.21 0.10 81 1015.5
20190217055524 40 166 0.0 0.0 0.00 0.21 0.10 81 1015.5
20190217055021 40 58 0.0 0.0 0.00 0.21 0.10 82 1015.4
20190217054538 40 79 0.0 0.0 0.00 0.21 0.10 82 1015.4
20190217054035 40 90 0.0 0.0 0.00 0.21 0.10 82 1015.3
20190217053532 40 221 0.0 0.0 0.00 0.21 0.10 82 1015.3
20190217053028 40 234 0.0 0.0 0.00 0.22 0.10 82 1015.2
20190217052529 40 224 0.0 0.0 0.00 0.22 0.10 82 1015.2
20190217052026 40 241 0.0 0.0 0.00 0.22 0.10 82 1015.2
20190217051524 40 263 0.0 0.0 0.00 0.22 0.10 82 1015.2
20190217051040 40 236 0.0 0.0 0.00 0.22 0.10 81 1015.1
20190217050535 41 21 0.0 0.0 0.00 0.22 0.10 80 1015.0
20190217050031 41 224 0.0 0.0 0.00 0.22 0.10 80 1014.9
20190217045527 41 232 0.0 0.0 0.00 0.22 0.10 79 1015.0
20190217045024 41 36 0.0 0.0 0.00 0.22 0.10 79 1015.0
20190217044540 41 288 0.0 0.0 0.00 0.22 0.10 80 1015.1
20190217044037 42 164 0.0 0.0 0.00 0.22 0.10 79 1015.1
20190217043535 41 219 0.0 0.0 0.00 0.22 0.10 80 1015.2
20190217043030 42 14 0.0 0.0 0.00 0.22 0.10 79 1015.0
20190217042528 42 208 0.0 0.0 0.00 0.22 0.10 79 1014.9
20190217042025 42 233 0.0 1.0 0.00 0.22 0.10 79 1014.9
20190217041522 42 255 0.0 1.0 0.00 0.22 0.10 78 1014.9
20190217041038 42 324 0.0 0.0 0.00 0.22 0.10 78 1014.9
20190217040537 43 94 0.0 0.0 0.00 0.22 0.10 77 1014.9
20190217040033 43 325 0.0 0.0 0.00 0.22 0.10 77 1014.9
20190217035530 43 267 0.0 0.0 0.00 0.22 0.10 78 1014.9
20190217035027 43 321 0.0 0.0 0.00 0.22 0.10 78 1014.9
20190217034524 43 34 0.0 0.0 0.00 0.22 0.10 79 1014.9
20190217034022 43 279 0.0 0.0 0.00 0.22 0.10 79 1014.9
20190217033540 43 75 0.0 0.0 0.00 0.22 0.10 79 1014.9
20190217033036 43 143 0.0 0.0 0.00 0.24 0.10 79 1014.8
20190217032533 43 68 0.0 0.0 0.00 0.24 0.10 79 1014.9
20190217032030 43 226 0.0 0.0 0.00 0.24 0.10 78 1014.9
20190217031529 43 21 0.0 0.0 0.00 0.24 0.10 78 1014.9
20190217031025 43 258 0.0 0.0 0.00 0.24 0.10 78 1015.0
20190217030542 43 269 0.0 0.0 0.00 0.24 0.10 78 1015.0
20190217030037 43 80 0.0 2.0 0.00 0.24 0.10 78 1015.0
20190217025535 43 238 0.0 2.0 0.00 0.24 0.10 77 1014.9
20190217025036 43 68 0.0 1.0 0.00 0.24 0.10 76 1015.0
20190217024533 44 68 0.0 2.0 0.00 0.24 0.10 76 1015.0
20190217024029 44 358 0.0 2.0 0.00 0.24 0.10 75 1015.0
20190217023527 44 67 0.0 3.0 0.00 0.24 0.10 75 1014.9
20190217023023 44 41 0.0 3.0 0.00 0.24 0.10 74 1015.0
20190217022540 44 42 0.0 3.0 0.00 0.24 0.10 74 1015.0
20190217022036 45 164 0.0 3.0 0.00 0.24 0.10 73 1014.9
20190217021531 45 151 0.0 7.0 0.00 0.24 0.10 72 1014.9
20190217021028 45 230 1.0 7.0 0.00 0.24 0.10 73 1014.9
20190217020522 45 337 0.0 3.0 0.00 0.24 0.10 73 1014.9
20190217020039 45 165 1.0 2.0 0.00 0.24 0.10 71 1014.8
20190217015536 46 44 0.0 4.0 0.00 0.24 0.10 70 1014.8
20190217015034 46 75 1.0 5.0 0.00 0.24 0.10 69 1014.7
20190217014530 46 65 2.0 5.0 0.00 0.24 0.10 68 1014.7
20190217014027 46 95 1.0 7.0 0.00 0.24 0.10 67 1014.6
20190217013647 47 81 2.0 7.0 0.00 0.24 0.10 67 1014.6
20190217013031 47 52 2.0 6.0 0.00 0.24 0.10 66 1014.4
20190217012529 48 127 0.0 4.0 0.00 0.24 0.10 68 1014.5
20190217012025 48 27 1.0 5.0 0.00 0.24 0.10 68 1014.5
20190217011522 48 104 0.0 3.0 0.00 0.24 0.10 66 1014.5
20190217011038 48 209 0.0 0.0 0.00 0.24 0.10 68 1014.5
20190217010533 48 148 0.0 4.0 0.00 0.24 0.10 68 1014.5
20190217010029 48 326 0.0 6.0 0.00 0.24 0.10 67 1014.5
20190217005526 48 282 2.0 6.0 0.00 0.24 0.10 66 1014.6
20190217005022 49 230 1.0 4.0 0.00 0.24 0.10 67 1014.6
20190217004539 49 250 1.0 4.0 0.00 0.24 0.10 65 1014.7
20190217004037 50 227 1.0 3.0 0.00 0.24 0.10 64 1014.7
20190217003536 50 133 1.0 5.0 0.00 0.24 0.10 61 1014.6
20190217003031 51 79 2.0 6.0 0.00 0.24 0.10 59 1014.6
20190217002528 51 353 2.0 6.0 0.00 0.24 0.10 59 1014.7
20190217002028 51 34 2.0 7.0 0.00 0.24 0.10 59 1014.7
20190217001525 51 274 2.0 9.0 0.00 0.24 0.10 61 1014.6
20190217001042 52 274 3.0 13.0 0.00 0.24 0.10 59 1014.8
20190217000536 53 340 2.0 8.0 0.00 0.24 0.10 62 1014.7
20190217000031 52 202 0.0 3.0 0.00 0.24 0.10 68 1014.7
20190216235528 51 125 0.0 0.0 0.00 0.24 0.10 68 1014.7
20190216235025 51 336 0.0 0.0 0.00 0.24 0.10 67 1014.7
20190216234522 51 182 0.0 0.0 0.00 0.24 0.10 67 1014.8
20190216234039 51 150 0.0 0.0 0.00 0.24 0.10 69 1014.7
20190216233536 51 137 0.0 0.0 0.00 0.24 0.10 70 1014.7
20190216233033 51 127 0.0 0.0 0.00 0.26 0.10 68 1014.7
20190216232529 51 176 0.0 0.0 0.00 0.26 0.10 70 1014.8
20190216232027 51 224 0.0 0.0 0.00 0.26 0.10 67 1014.8
20190216231525 51 208 0.0 5.0 0.00 0.26 0.10 69 1014.9
20190216231042 51 203 2.0 5.0 0.00 0.26 0.10 70 1014.9
20190216230535 50 131 1.0 5.0 0.00 0.26 0.10 70 1015.1
20190216230035 50 230 1.0 4.0 0.00 0.26 0.10 72 1015.1
20190216225532 49 213 0.0 4.0 0.00 0.26 0.10 76 1015.2
20190216225030 48 179 1.0 4.0 0.00 0.26 0.10 75 1015.2
20190216224526 48 125 2.0 8.0 0.00 0.26 0.10 74 1015.2
20190216224024 48 245 3.0 8.0 0.00 0.26 0.10 71 1015.3
20190216223522 50 284 3.0 6.0 0.00 0.26 0.10 72 1015.3
20190216223039 50 178 3.0 6.0 0.00 0.26 0.10 73 1015.5
20190216222537 51 221 1.0 4.0 0.00 0.26 0.10 73 1015.6
20190216222034 52 232 2.0 4.0 0.00 0.26 0.10 73 1015.3
20190216221531 52 168 2.0 5.0 0.03 0.26 0.10 75 1015.4
20190216221028 51 216 1.0 5.0 0.03 0.26 0.10 77 1015.4
20190216220522 50 152 1.0 4.0 0.03 0.26 0.10 81 1015.5
20190216220038 49 163 1.0 4.0 0.03 0.26 0.10 80 1015.5
20190216215535 49 222 1.0 3.0 0.03 0.26 0.10 83 1015.6
20190216215033 48 173 1.0 4.0 0.03 0.26 0.10 81 1015.7
20190216214533 48 221 1.0 4.0 0.03 0.26 0.10 81 1015.8
20190216214032 48 217 1.0 3.0 0.03 0.26 0.10 87 1015.8
20190216213531 47 198 0.0 3.0 0.03 0.26 0.10 85 1015.8
20190216213026 47 213 0.0 3.0 0.03 0.31 0.10 81 1016.0
20190216212523 48 253 0.0 10.0 0.03 0.31 0.10 75 1016.2
20190216212040 50 263 1.0 11.0 0.03 0.31 0.10 71 1016.4
20190216211537 53 252 4.0 9.0 0.00 0.28 0.07 64 1016.2
20190216211033 54 140 4.0 9.0 0.00 0.28 0.07 63 1015.9
20190216210528 54 212 2.0 10.0 0.00 0.28 0.07 65 1015.9
20190216210023 54 199 4.0 12.0 0.00 0.28 0.07 65 1015.9
20190216205540 54 344 5.0 12.0 0.00 0.28 0.07 62 1015.9
20190216205037 54 225 2.0 5.0 0.00 0.28 0.07 62 1016.1
20190216204534 54 233 2.0 4.0 0.00 0.28 0.07 64 1016.2
20190216204032 54 224 1.0 7.0 0.00 0.28 0.07 63 1016.2
20190216203531 54 234 2.0 7.0 0.00 0.28 0.07 63 1016.2
20190216203030 54 234 1.0 6.0 0.00 0.32 0.07 63 1016.2
20190216202529 53 229 3.0 7.0 0.00 0.32 0.07 61 1016.5
20190216202025 54 224 2.0 7.0 0.00 0.32 0.07 62 1016.5
20190216201522 54 243 3.0 9.0 0.00 0.32 0.07 62 1016.6
20190216201039 54 223 2.0 9.0 0.00 0.32 0.07 64 1016.7
20190216200527 54 214 2.0 11.0 0.00 0.32 0.07 63 1016.7
20190216200024 53 250 3.0 11.0 0.00 0.32 0.07 64 1016.7
20190216195520 53 245 1.0 7.0 0.00 0.32 0.07 67 1016.8
20190216195039 53 233 3.0 4.0 0.00 0.32 0.07 67 1017.1
20190216194536 53 156 1.0 8.0 0.00 0.32 0.07 67 1017.1
20190216194032 53 132 3.0 8.0 0.00 0.32 0.07 68 1017.3
20190216193530 52 127 2.0 8.0 0.00 0.32 0.07 71 1017.3
20190216193025 52 120 2.0 8.0 0.00 0.33 0.07 72 1017.3
20190216192522 51 129 2.0 9.0 0.00 0.33 0.07 71 1017.3
20190216192040 52 302 3.0 9.0 0.00 0.33 0.07 72 1017.1
20190216191536 51 219 2.0 8.0 0.00 0.33 0.07 72 1017.2
20190216191036 51 139 2.0 8.0 0.00 0.33 0.07 72 1017.1
20190216190531 50 172 1.0 13.0 0.00 0.33 0.07 75 1017.1
20190216190027 50 168 5.0 13.0 0.00 0.33 0.07 72 1017.1
20190216185523 50 113 1.0 8.0 0.00 0.33 0.07 76 1017.2
20190216185040 50 262 3.0 10.0 0.00 0.33 0.07 78 1017.3
20190216184537 49 224 4.0 10.0 0.00 0.33 0.07 78 1017.4
20190216184034 49 214 2.0 6.0 0.00 0.33 0.07 79 1017.6
20190216183531 48 263 1.0 6.0 0.00 0.33 0.07 80 1017.6
20190216183028 48 233 1.0 4.0 0.00 0.35 0.07 81 1017.7
20190216182525 47 225 1.0 4.0 0.00 0.35 0.07 82 1017.8
20190216182022 47 281 1.0 4.0 0.00 0.35 0.07 81 1017.7
20190216181540 47 80 0.0 4.0 0.00 0.35 0.07 83 1017.6
20190216181036 47 237 1.0 3.0 0.00 0.35 0.07 83 1017.6